#timestamp,LO_Frequency,Hit,StdDev 
1549598415.0,286046999.7,N
1549598415.9,286046999.7,N
1549598435.8,286047000.5,N
1549598455.6,286047000.6,N
1549598475.5,286047001.0,N
1549598495.3,286047000.5,N
1549598515.1,286047001.0,N
1549598535.9,286047000.5,N
1549598555.7,286047000.2,N
1549598575.5,286047000.6,N
1549598595.4,286046998.3,N
1549598615.2,286046996.6,Y
1549598635.1,286046997.4,P
1549598636.0,286046997.4,N
1549598655.8,286046995.0,P
1549598675.6,286046994.9,N
1549598695.5,286046997.5,N
1549598715.3,286046997.8,N
1549598735.1,286046996.8,N
1549598755.9,286046999.1,N
1549598775.7,286046996.5,N
1549598795.5,286046998.5,N
1549598815.4,286046998.8,N
1549598835.2,286046998.4,N
1549598855.1,286046998.3,N
1549598856.0,286046998.3,N
1549598875.8,286046996.7,N
1549598895.6,286046999.5,N
1549598915.5,286046999.0,N
1549598935.3,286046999.3,N
1549598955.1,286046999.3,N
1549598975.9,286046998.4,N
1549598995.7,286046999.3,N
1549599015.6,286046996.9,N
1549599035.4,286046999.3,N
1549599055.2,286046997.1,N
1549599075.1,286046997.9,N
1549599076.0,286046997.9,N
1549599095.8,286046997.8,N
1549599115.6,286046997.2,N
1549599135.5,286046996.6,N
1549599155.3,286046997.2,N
1549599175.2,286046996.7,N
1549599195.9,286046996.7,N
1549599215.7,286046998.8,N
1549599235.6,286046998.3,N
1549599255.4,286046998.9,N
1549599275.2,286046999.4,N
1549599295.1,286046998.5,N
1549599296.0,286046998.5,N
1549599315.8,286046998.9,N
1549599335.7,286046998.3,N
1549599355.5,286046998.1,N
1549599375.3,286047000.5,N
1549599395.2,286047000.0,N
1549599415.9,286046999.7,N
1549599435.7,286047002.6,N
1549599455.6,286047002.4,N
1549599475.4,286047004.1,N
1549599495.2,286047001.7,N
1549599515.1,286047002.3,N
1549599516.0,286047002.3,N
1549599535.8,286047000.3,N
1549599555.7,286047000.0,N
1549599575.5,286047000.0,N
1549599595.3,286047000.2,N
1549599615.2,286046999.8,N
1549599635.0,286047002.4,N
1549599635.9,286047002.4,N
1549599655.8,286047000.5,N
1549599675.6,286047000.7,N
1549599695.4,286047001.0,N
1549599715.3,286047000.7,N
1549599735.1,286047000.0,N
1549599755.8,286046998.7,N
1549599775.7,286046998.6,N
1549599795.5,286046998.3,N
1549599815.4,286046998.2,N
1549599835.2,286046998.3,N
1549599855.0,286047001.1,N
1549599855.9,286047001.1,N
1549599875.8,286046998.6,N
1549599895.6,286046998.2,N
1549599915.4,286046998.1,N
1549599935.3,286047000.3,N
1549599955.1,286047001.2,N
1549599975.9,286047002.0,N
1549599995.7,286047000.3,N
1549600015.5,286047000.3,N
1549600035.4,286046998.4,N
1549600055.2,286047000.8,N
1549600075.0,286047000.5,N
1549600075.9,286047000.5,N
1549600095.8,286047000.5,N
1549600115.6,286047000.3,N
1549600135.4,286047001.9,N
1549600155.3,286047000.1,N
1549600175.1,286047000.5,N
1549600195.9,286046998.5,N
1549600215.7,286046998.2,N
1549600235.5,286047001.2,N
1549600255.4,286047001.2,N
1549600275.2,286046998.9,N
1549600295.0,286046999.2,N
1549600295.9,286046999.2,N
1549600315.8,286046999.1,N
1549600335.6,286046999.1,N
1549600355.5,286046998.1,N
1549600375.3,286046998.5,N
1549600395.1,286046998.1,N
1549600415.9,286046998.7,N
1549600435.7,286046998.2,N
1549600455.6,286047000.7,N
1549600475.4,286046998.7,N
1549600495.2,286047000.4,N
1549600515.1,286047000.0,N
1549600516.0,286047000.0,N
1549600535.8,286047000.1,N
1549600555.7,286047002.2,N
1549600575.5,286046999.7,N
1549600595.3,286047000.7,N
1549600615.2,286046998.4,N
1549600635.0,286046998.9,N
1549600635.9,286046998.9,N
1549600655.7,286046998.4,N
1549600675.6,286047000.3,N
1549600695.4,286047000.6,N
1549600715.3,286046998.6,N
1549600735.1,286047000.5,N
1549600736.0,286047000.5,N
1549600755.8,286047001.1,N
1549600775.7,286047000.8,N
1549600795.5,286047000.0,N
1549600815.3,286047002.7,N
1549600835.2,286046999.7,N
1549600855.0,286047002.1,N
1549600855.9,286047002.1,N
1549600875.8,286047002.4,N
1549600895.6,286046999.7,N
1549600915.4,286047001.8,N
1549600935.3,286047002.2,N
1549600955.1,286046999.8,N
1549600975.8,286047002.4,N
1549600995.7,286047002.8,N
1549601015.5,286047002.3,N
1549601035.4,286047002.4,N
1549601055.2,286047001.8,N
1549601075.0,286047002.2,N
1549601075.9,286047002.2,N
1549601095.8,286047001.4,N
1549601115.6,286047004.0,N
1549601135.4,286047001.5,N
1549601155.3,286047002.1,N
1549601175.1,286047001.9,N
1549601195.9,286047002.5,N
1549601215.7,286047002.8,N
1549601235.5,286047002.8,N
1549601255.4,286047002.8,N
1549601275.2,286047000.5,N
1549601295.0,286047000.0,N
1549601295.9,286047000.0,N
1549601315.8,286047002.7,N
1549601335.6,286046999.9,N
1549601355.5,286047002.3,N
1549601375.3,286047000.9,N
1549601395.1,286047001.2,N
1549601415.9,286047000.6,N
1549601435.7,286047000.5,N
1549601455.5,286046999.9,N
1549601475.4,286047000.6,N
1549601495.2,286047000.0,N
1549601515.1,286047000.1,N
1549601516.0,286047000.1,N
1549601535.8,286047002.4,N
1549601555.6,286047001.2,N
1549601575.5,286047000.4,N
1549601595.3,286047000.0,N
1549601615.1,286047001.2,N
1549601635.9,286047001.1,N
1549601655.7,286046999.3,N
1549601675.6,286046997.1,N
1549601695.4,286046998.6,N
1549601715.2,286047000.8,N
1549601735.1,286047000.5,N
1549601736.0,286047000.5,N
1549601755.8,286047000.4,N
1549601775.6,286046999.9,N
1549601795.5,286047002.3,N
1549601815.3,286046999.8,N
1549601835.2,286047000.0,N
1549601855.9,286046999.8,N
1549601875.7,286047002.5,N
1549601895.6,286047000.2,N
1549601915.4,286046999.9,N
1549601935.2,286047000.7,N
1549601955.1,286047001.0,N
1549601956.0,286047001.0,N
1549601975.8,286047000.3,N
1549601995.7,286047002.7,N
